Regional Weather Roundup
Issued by NWS

Home | Current Version | Previous Version | Graphics & Text | Print | Product List | Glossary On
Versions: 1 2 3 4 5 6 7 8 9 10 11 12 13 14 15 16 17 18 19 20 21 22 23 24 25 26 27 28 29 30 31 32 33 34 35 36 37 38 39 40 41 42 43 44 45 46 47 48 49 50
000
ASUS44 KMEG 031610
RWRTN
TENNESSEE HOURLY STATE WEATHER ROUNDUP
NATIONAL WEATHER SERVICE MEMPHIS TN
1100 AM CDT MON AUG 03 2015

TNZ002-004-019-021-049-052-054-088>092-031700-
WEST TENNESSEE

CITY           SKY/WX    TMP DP  RH WIND       PRES   REMARKS
MEMPHIS INTL   MOSUNNY   92  69  47 CALM      29.96S HX  97
NWS MEMPHIS      N/A     90 N/A N/A MISG        N/A
JACKSON        SUNNY     90  69  50 W8        29.97R HX  94
DYERSBURG        N/A    N/A N/A N/A MISG        N/A
PARIS          SUNNY     86  72  62 W6        29.97R HX  92
LEXINGTON      SUNNY     88  72  58 W5        29.96S HX  94
$$

TNZ008-025-027-028-033-062-065-066-031700-
NORTH MIDDLE TENNESSEE

CITY           SKY/WX    TMP DP  RH WIND       PRES   REMARKS
NASHVILLE      MOSUNNY   87  56  34 W9        29.96F
CLARKSVILLE    SUNNY     86  71  60 W9        29.94S HX  91
SMYRNA         SUNNY     91  69  48 NW9       29.96F HX  95
CROSSVILLE     MOSUNNY   83  63  50 VRB6      30.04R
$$

TNZ061-075-076-078-094-096-097-031700-
SOUTH MIDDLE TENNESSEE

CITY           SKY/WX    TMP DP  RH WIND       PRES   REMARKS
FAYETTEVILLE     N/A     84  63  48 W3        29.98F
TULLAHOMA      SUNNY     86  61  42 NW6       30.00S
WINCHESTER     SUNNY     84  63  48 N7        29.99S
COLUMBIA       SUNNY     90  70  51 N6        29.96S HX  95
SHELBYVILLE    SUNNY     90  68  48 VRB3      29.98S HX  93
$$

TNZ017-018-042-046-047-031700-
NORTHEAST TENNESSEE

CITY           SKY/WX    TMP DP  RH WIND       PRES   REMARKS
TRI CITIES     MOSUNNY   82  60  47 E5        30.01F
ELIZABETHTON   SUNNY     81  61  50 CALM      30.02F
$$

TNZ012-013-036-069-073-074-031700-
CENTRAL EAST TENNESSEE

CITY           SKY/WX    TMP DP  RH WIND       PRES   REMARKS
KNOXVILLE      MOSUNNY   84  61  45 E5        29.98S
OAK RIDGE      SUNNY     83  63  50 CALM      29.99S
GATLINBURG       N/A     86  57  37 VRB3      29.98S
MORRISTOWN     SUNNY     82  64  54 CALM      30.01S
$$

TNZ083-085-099-031700-
SOUTHEAST TENNESSEE

CITY           SKY/WX    TMP DP  RH WIND       PRES   REMARKS
CHATTANOOGA    MOSUNNY   87  58  37 N8        29.97S
$$

SKY/WX REPORTED AS FAIR MEANS FEW OR NO CLOUDS BELOW
12 THOUSAND FEET.




USA.gov is the U.S. government's official web portal to all federal, state and local government web resources and services.